| time (UTC) | temp F | wind direction | speed MPH | gust MPH | rain 1hr in | rain 24hr in | rain mn in | humidity % | barometer mb |
| 20260510130630 | 60 | 13 | 0.0 | 0.0 | 0.00 | 0.00 | 0.00 | 93 | 1014.0 |
| 20260510130127 | 59 | 13 | 0.0 | 0.0 | 0.00 | 0.00 | 0.00 | 93 | 1014.0 |
| 20260510125623 | 58 | 13 | 0.0 | 0.0 | 0.00 | 0.00 | 0.00 | 94 | 1014.1 |
| 20260510125120 | 57 | 12 | 0.0 | 0.0 | 0.00 | 0.00 | 0.00 | 94 | 1014.0 |
| 20260510124617 | 56 | 12 | 0.0 | 1.0 | 0.00 | 0.00 | 0.00 | 94 | 1014.0 |
| 20260510124114 | 56 | 0 | 1.0 | 1.0 | 0.00 | 0.00 | 0.00 | 95 | 1013.9 |
| 20260510123609 | 55 | 345 | 0.0 | 0.0 | 0.00 | 0.00 | 0.00 | 95 | 1014.2 |
| 20260510123105 | 55 | 344 | 0.0 | 1.0 | 0.00 | 0.00 | 0.00 | 94 | 1013.9 |
| 20260510122601 | 54 | 358 | 0.0 | 0.0 | 0.00 | 0.00 | 0.00 | 95 | 1013.7 |
| 20260510122057 | 54 | 358 | 0.0 | 0.0 | 0.00 | 0.00 | 0.00 | 95 | 1014.0 |
| 20260510121554 | 53 | 358 | 0.0 | 1.0 | 0.00 | 0.00 | 0.00 | 95 | 1013.7 |
| 20260510121052 | 53 | 309 | 0.0 | 0.0 | 0.00 | 0.00 | 0.00 | 95 | 1013.7 |
| 20260510120549 | 52 | 312 | 1.0 | 1.0 | 0.00 | 0.00 | 0.00 | 94 | 1013.4 |
| 20260510120044 | 52 | 314 | 0.0 | 0.0 | 0.00 | 0.00 | 0.00 | 95 | 1013.6 |
| 20260510115541 | 52 | 313 | 0.0 | 0.0 | 0.00 | 0.00 | 0.00 | 95 | 1013.9 |
| 20260510115038 | 52 | 313 | 0.0 | 0.0 | 0.00 | 0.00 | 0.00 | 95 | 1013.7 |
| 20260510114533 | 51 | 313 | 0.0 | 0.0 | 0.00 | 0.00 | 0.00 | 95 | 1013.6 |
| 20260510114030 | 51 | 313 | 0.0 | 0.0 | 0.00 | 0.00 | 0.00 | 95 | 1013.3 |
| 20260510113525 | 51 | 313 | 0.0 | 0.0 | 0.00 | 0.00 | 0.00 | 95 | 1013.1 |
| 20260510113023 | 51 | 313 | 0.0 | 1.0 | 0.00 | 0.00 | 0.00 | 95 | 1013.1 |
| 20260510112520 | 51 | 313 | 0.0 | 0.0 | 0.00 | 0.00 | 0.00 | 95 | 1012.8 |
| 20260510112016 | 50 | 313 | 0.0 | 0.0 | 0.00 | 0.00 | 0.00 | 95 | 1012.9 |
| 20260510111513 | 50 | 313 | 0.0 | 0.0 | 0.00 | 0.00 | 0.00 | 95 | 1012.6 |
| 20260510111009 | 49 | 313 | 0.0 | 0.0 | 0.00 | 0.00 | 0.00 | 95 | 1012.4 |
| 20260510110505 | 48 | 313 | 0.0 | 1.0 | 0.00 | 0.00 | 0.00 | 95 | 1012.5 |
| 20260510110002 | 48 | 313 | 0.0 | 0.0 | 0.00 | 0.00 | 0.00 | 95 | 1012.5 |
| 20260510105456 | 48 | 313 | 0.0 | 0.0 | 0.00 | 0.00 | 0.00 | 95 | 1012.4 |
| 20260510104952 | 47 | 313 | 0.0 | 0.0 | 0.00 | 0.00 | 0.00 | 95 | 1012.2 |
| 20260510104449 | 47 | 313 | 0.0 | 0.0 | 0.00 | 0.00 | 0.00 | 95 | 1012.2 |
| 20260510103945 | 47 | 313 | 0.0 | 0.0 | 0.00 | 0.00 | 0.00 | 95 | 1012.2 |
| 20260510103443 | 47 | 313 | 0.0 | 0.0 | 0.00 | 0.00 | 0.00 | 95 | 1012.1 |
| 20260510102938 | 47 | 313 | 0.0 | 0.0 | 0.00 | 0.00 | 0.00 | 95 | 1012.1 |
| 20260510102434 | 47 | 313 | 0.0 | 0.0 | 0.00 | 0.00 | 0.00 | 95 | 1011.9 |
| 20260510101931 | 47 | 313 | 0.0 | 0.0 | 0.00 | 0.00 | 0.00 | 95 | 1011.9 |
| 20260510101429 | 47 | 313 | 0.0 | 0.0 | 0.00 | 0.00 | 0.00 | 95 | 1011.8 |
| 20260510100927 | 47 | 313 | 0.0 | 0.0 | 0.00 | 0.00 | 0.00 | 95 | 1011.7 |
| 20260510100423 | 47 | 313 | 0.0 | 0.0 | 0.00 | 0.00 | 0.00 | 95 | 1011.4 |
| 20260510095919 | 48 | 313 | 0.0 | 0.0 | 0.00 | 0.00 | 0.00 | 94 | 1011.6 |
| 20260510095415 | 48 | 313 | 0.0 | 0.0 | 0.00 | 0.00 | 0.00 | 95 | 1011.3 |
| 20260510094914 | 48 | 313 | 0.0 | 0.0 | 0.00 | 0.00 | 0.00 | 94 | 1011.4 |
| 20260510094409 | 48 | 313 | 0.0 | 0.0 | 0.00 | 0.00 | 0.00 | 94 | 1011.3 |
| 20260510093906 | 48 | 313 | 0.0 | 1.0 | 0.00 | 0.00 | 0.00 | 94 | 1011.3 |
| 20260510093401 | 47 | 313 | 0.0 | 0.0 | 0.00 | 0.00 | 0.00 | 94 | 1011.1 |
| 20260510092858 | 47 | 313 | 0.0 | 0.0 | 0.00 | 0.00 | 0.00 | 94 | 1011.0 |
| 20260510092355 | 47 | 313 | 0.0 | 0.0 | 0.00 | 0.00 | 0.00 | 94 | 1011.1 |
| 20260510091850 | 47 | 313 | 0.0 | 0.0 | 0.00 | 0.00 | 0.00 | 94 | 1011.2 |
| 20260510091347 | 47 | 313 | 0.0 | 0.0 | 0.00 | 0.00 | 0.00 | 94 | 1011.3 |
| 20260510090843 | 47 | 313 | 0.0 | 0.0 | 0.00 | 0.00 | 0.00 | 94 | 1011.1 |
| 20260510090340 | 47 | 313 | 0.0 | 0.0 | 0.00 | 0.00 | 0.00 | 94 | 1011.1 |
| 20260510085835 | 48 | 313 | 0.0 | 0.0 | 0.00 | 0.00 | 0.00 | 94 | 1010.9 |
| 20260510085330 | 48 | 313 | 0.0 | 0.0 | 0.00 | 0.00 | 0.00 | 94 | 1011.0 |
| 20260510084826 | 48 | 313 | 0.0 | 0.0 | 0.00 | 0.00 | 0.00 | 94 | 1011.0 |
| 20260510084324 | 48 | 313 | 0.0 | 0.0 | 0.00 | 0.00 | 0.00 | 94 | 1010.8 |
| 20260510083820 | 48 | 313 | 0.0 | 0.0 | 0.00 | 0.00 | 0.00 | 94 | 1011.0 |
| 20260510083317 | 48 | 313 | 0.0 | 0.0 | 0.00 | 0.00 | 0.00 | 94 | 1011.1 |
| 20260510082812 | 48 | 313 | 0.0 | 0.0 | 0.00 | 0.00 | 0.00 | 94 | 1010.9 |
| 20260510082310 | 48 | 313 | 0.0 | 0.0 | 0.00 | 0.00 | 0.00 | 94 | 1011.0 |
| 20260510081809 | 48 | 313 | 0.0 | 0.0 | 0.00 | 0.00 | 0.00 | 94 | 1010.8 |
| 20260510081305 | 48 | 313 | 0.0 | 0.0 | 0.00 | 0.00 | 0.00 | 94 | 1010.9 |
| 20260510080801 | 48 | 313 | 0.0 | 0.0 | 0.00 | 0.00 | 0.00 | 94 | 1010.8 |
| 20260510080301 | 48 | 313 | 0.0 | 0.0 | 0.00 | 0.00 | 0.00 | 94 | 1010.9 |
| 20260510075758 | 48 | 313 | 0.0 | 0.0 | 0.00 | 0.00 | 0.00 | 94 | 1010.9 |
| 20260510075256 | 48 | 313 | 0.0 | 0.0 | 0.00 | 0.00 | 0.00 | 94 | 1010.6 |
| 20260510074753 | 48 | 313 | 0.0 | 0.0 | 0.00 | 0.00 | 0.00 | 94 | 1010.7 |
| 20260510074249 | 49 | 313 | 0.0 | 0.0 | 0.00 | 0.00 | 0.00 | 94 | 1010.6 |
| 20260510073745 | 49 | 313 | 0.0 | 0.0 | 0.00 | 0.00 | 0.00 | 94 | 1010.6 |
| 20260510073241 | 49 | 313 | 0.0 | 0.0 | 0.00 | 0.00 | 0.00 | 94 | 1010.6 |
| 20260510072737 | 49 | 313 | 0.0 | 1.0 | 0.00 | 0.00 | 0.00 | 94 | 1010.7 |
| 20260510072234 | 49 | 313 | 0.0 | 1.0 | 0.00 | 0.00 | 0.00 | 94 | 1010.7 |
| 20260510071731 | 49 | 312 | 0.0 | 0.0 | 0.00 | 0.00 | 0.00 | 94 | 1010.4 |
| 20260510071227 | 49 | 312 | 0.0 | 0.0 | 0.00 | 0.00 | 0.00 | 94 | 1010.6 |
| 20260510070726 | 49 | 312 | 0.0 | 0.0 | 0.00 | 0.00 | 0.00 | 94 | 1010.7 |
| 20260510070223 | 49 | 312 | 0.0 | 0.0 | 0.00 | 0.00 | 0.00 | 94 | 1010.7 |
| 20260510065717 | 49 | 312 | 0.0 | 0.0 | 0.00 | 0.00 | 0.00 | 94 | 1010.6 |
| 20260510065214 | 49 | 312 | 0.0 | 0.0 | 0.00 | 0.00 | 0.00 | 94 | 1010.6 |
| 20260510064710 | 49 | 312 | 0.0 | 0.0 | 0.00 | 0.00 | 0.00 | 94 | 1010.6 |
| 20260510064208 | 49 | 312 | 0.0 | 0.0 | 0.00 | 0.00 | 0.00 | 94 | 1010.6 |
| 20260510063705 | 49 | 312 | 0.0 | 0.0 | 0.00 | 0.00 | 0.00 | 94 | 1010.6 |
| 20260510063201 | 49 | 312 | 0.0 | 0.0 | 0.00 | 0.00 | 0.00 | 94 | 1010.6 |
| 20260510062657 | 49 | 313 | 0.0 | 0.0 | 0.00 | 0.00 | 0.00 | 94 | 1010.7 |
| 20260510062153 | 49 | 313 | 0.0 | 0.0 | 0.00 | 0.00 | 0.00 | 93 | 1010.5 |
| 20260510061648 | 50 | 313 | 0.0 | 0.0 | 0.00 | 0.00 | 0.00 | 93 | 1010.5 |
| 20260510061146 | 50 | 312 | 0.0 | 0.0 | 0.00 | 0.00 | 0.00 | 93 | 1010.8 |
| 20260510060642 | 50 | 313 | 0.0 | 0.0 | 0.00 | 0.00 | 0.00 | 93 | 1010.6 |
| 20260510060139 | 50 | 313 | 0.0 | 0.0 | 0.00 | 0.00 | 0.00 | 93 | 1010.6 |
| 20260510055635 | 50 | 312 | 0.0 | 0.0 | 0.00 | 0.00 | 0.00 | 93 | 1010.7 |
| 20260510055134 | 50 | 312 | 0.0 | 0.0 | 0.00 | 0.00 | 0.00 | 93 | 1010.9 |
| 20260510054629 | 50 | 312 | 0.0 | 0.0 | 0.00 | 0.00 | 0.00 | 93 | 1010.8 |
| 20260510054125 | 50 | 312 | 0.0 | 0.0 | 0.00 | 0.00 | 0.00 | 93 | 1010.8 |
| 20260510053624 | 50 | 312 | 0.0 | 0.0 | 0.00 | 0.00 | 0.00 | 93 | 1010.7 |
| 20260510053121 | 50 | 312 | 0.0 | 0.0 | 0.00 | 0.00 | 0.00 | 93 | 1011.0 |
| 20260510052617 | 50 | 312 | 0.0 | 0.0 | 0.00 | 0.00 | 0.00 | 93 | 1010.8 |
| 20260510052114 | 50 | 312 | 0.0 | 0.0 | 0.00 | 0.00 | 0.00 | 93 | 1010.6 |
| 20260510051609 | 50 | 312 | 0.0 | 0.0 | 0.00 | 0.00 | 0.00 | 93 | 1010.9 |
| 20260510051106 | 50 | 312 | 0.0 | 0.0 | 0.00 | 0.00 | 0.00 | 93 | 1010.9 |
| 20260510050603 | 50 | 312 | 0.0 | 0.0 | 0.00 | 0.00 | 0.00 | 93 | 1010.7 |
| 20260510050100 | 50 | 312 | 0.0 | 0.0 | 0.00 | 0.00 | 0.00 | 93 | 1010.8 |
| 20260510045557 | 50 | 312 | 0.0 | 0.0 | 0.00 | 0.00 | 0.00 | 93 | 1010.8 |
| 20260510045053 | 51 | 312 | 0.0 | 0.0 | 0.00 | 0.00 | 0.00 | 93 | 1010.8 |
| 20260510044550 | 51 | 312 | 0.0 | 0.0 | 0.00 | 0.00 | 0.00 | 93 | 1010.8 |
| 20260510044048 | 51 | 312 | 0.0 | 0.0 | 0.00 | 0.00 | 0.00 | 93 | 1010.7 |
| 20260510043543 | 51 | 312 | 0.0 | 0.0 | 0.00 | 0.00 | 0.00 | 93 | 1010.8 |
| 20260510043039 | 51 | 312 | 0.0 | 0.0 | 0.00 | 0.00 | 0.00 | 92 | 1010.5 |
| 20260510042538 | 51 | 312 | 0.0 | 0.0 | 0.00 | 0.00 | 0.00 | 93 | 1010.8 |
| 20260510042033 | 51 | 312 | 0.0 | 0.0 | 0.00 | 0.00 | 0.00 | 92 | 1010.6 |
| 20260510041531 | 51 | 312 | 0.0 | 0.0 | 0.00 | 0.00 | 0.00 | 92 | 1010.6 |
| 20260510041029 | 51 | 312 | 0.0 | 0.0 | 0.00 | 0.00 | 0.00 | 92 | 1010.7 |
| 20260510040525 | 51 | 312 | 0.0 | 0.0 | 0.00 | 0.00 | 0.00 | 92 | 1010.6 |
| 20260510040021 | 51 | 312 | 0.0 | 0.0 | 0.00 | 0.00 | 0.00 | 92 | 1010.6 |
| 20260510035517 | 51 | 312 | 0.0 | 0.0 | 0.00 | 0.00 | 0.00 | 92 | 1010.6 |
| 20260510035016 | 51 | 313 | 0.0 | 0.0 | 0.00 | 0.00 | 0.00 | 92 | 1010.6 |
| 20260510034516 | 52 | 312 | 0.0 | 0.0 | 0.00 | 0.00 | 0.00 | 92 | 1010.5 |
| 20260510034012 | 52 | 312 | 0.0 | 0.0 | 0.00 | 0.00 | 0.00 | 92 | 1010.4 |
| 20260510033508 | 52 | 312 | 0.0 | 0.0 | 0.00 | 0.00 | 0.00 | 92 | 1010.4 |
| 20260510033007 | 52 | 312 | 0.0 | 0.0 | 0.00 | 0.00 | 0.00 | 92 | 1010.4 |
| 20260510032503 | 52 | 312 | 0.0 | 0.0 | 0.00 | 0.00 | 0.00 | 92 | 1010.2 |
| 20260510032003 | 52 | 312 | 0.0 | 0.0 | 0.00 | 0.00 | 0.00 | 92 | 1010.3 |
| 20260510031458 | 52 | 312 | 0.0 | 0.0 | 0.00 | 0.00 | 0.00 | 92 | 1010.2 |
| 20260510030954 | 53 | 312 | 0.0 | 0.0 | 0.00 | 0.00 | 0.00 | 91 | 1010.2 |
| 20260510030450 | 53 | 312 | 0.0 | 0.0 | 0.00 | 0.00 | 0.00 | 91 | 1010.3 |
| 20260510025947 | 53 | 313 | 1.0 | 1.0 | 0.00 | 0.00 | 0.00 | 91 | 1010.2 |
| 20260510025445 | 53 | 303 | 1.0 | 1.0 | 0.00 | 0.00 | 0.00 | 91 | 1010.2 |
| 20260510024942 | 53 | 299 | 0.0 | 0.0 | 0.00 | 0.00 | 0.00 | 91 | 1009.9 |
| 20260510024438 | 53 | 299 | 0.0 | 1.0 | 0.00 | 0.00 | 0.00 | 91 | 1009.9 |
| 20260510023934 | 53 | 332 | 0.0 | 0.0 | 0.00 | 0.00 | 0.00 | 91 | 1010.0 |
| 20260510023431 | 53 | 332 | 0.0 | 0.0 | 0.00 | 0.00 | 0.00 | 91 | 1010.0 |
| 20260510022928 | 53 | 332 | 0.0 | 0.0 | 0.00 | 0.00 | 0.00 | 90 | 1010.1 |
| 20260510022427 | 53 | 332 | 0.0 | 0.0 | 0.00 | 0.00 | 0.00 | 90 | 1010.2 |
| 20260510021926 | 53 | 332 | 0.0 | 0.0 | 0.00 | 0.00 | 0.00 | 90 | 1009.8 |
| 20260510021424 | 54 | 332 | 0.0 | 0.0 | 0.00 | 0.00 | 0.00 | 89 | 1010.0 |
| 20260510020920 | 54 | 332 | 0.0 | 0.0 | 0.00 | 0.00 | 0.00 | 89 | 1009.6 |
| 20260510020415 | 54 | 332 | 0.0 | 0.0 | 0.00 | 0.00 | 0.00 | 89 | 1009.6 |
| 20260510015911 | 54 | 332 | 0.0 | 0.0 | 0.00 | 0.00 | 0.00 | 89 | 1009.7 |
| 20260510015407 | 54 | 332 | 0.0 | 0.0 | 0.00 | 0.00 | 0.00 | 88 | 1009.6 |
| 20260510014908 | 54 | 333 | 0.0 | 0.0 | 0.00 | 0.00 | 0.00 | 88 | 1009.4 |
| 20260510014406 | 55 | 333 | 0.0 | 0.0 | 0.00 | 0.00 | 0.00 | 88 | 1009.3 |
| 20260510013902 | 55 | 333 | 0.0 | 0.0 | 0.00 | 0.00 | 0.00 | 88 | 1009.1 |
| 20260510013357 | 55 | 333 | 0.0 | 0.0 | 0.00 | 0.00 | 0.00 | 87 | 1009.1 |
| 20260510012852 | 55 | 333 | 0.0 | 0.0 | 0.00 | 0.00 | 0.00 | 86 | 1009.2 |
| 20260510012347 | 56 | 333 | 0.0 | 0.0 | 0.00 | 0.00 | 0.00 | 86 | 1009.0 |
| 20260510011842 | 56 | 333 | 0.0 | 0.0 | 0.00 | 0.00 | 0.00 | 86 | 1009.0 |
| 20260510011337 | 56 | 332 | 0.0 | 0.0 | 0.00 | 0.00 | 0.00 | 85 | 1008.9 |
| 20260510010834 | 57 | 332 | 0.0 | 0.0 | 0.00 | 0.00 | 0.00 | 84 | 1009.0 |
| 20260510010332 | 57 | 332 | 0.0 | 0.0 | 0.00 | 0.00 | 0.00 | 84 | 1009.0 |
| 20260510005828 | 58 | 333 | 1.0 | 1.0 | 0.00 | 0.00 | 0.00 | 83 | 1009.0 |
| 20260510005324 | 58 | 332 | 0.0 | 1.0 | 0.00 | 0.00 | 0.00 | 82 | 1008.8 |
| 20260510004822 | 58 | 332 | 0.0 | 0.0 | 0.00 | 0.00 | 0.00 | 80 | 1008.9 |
| 20260510004320 | 59 | 332 | 0.0 | 0.0 | 0.00 | 0.00 | 0.00 | 79 | 1008.9 |
| 20260510003817 | 59 | 332 | 0.0 | 0.0 | 0.00 | 0.00 | 0.00 | 78 | 1008.8 |
| 20260510003314 | 60 | 333 | 0.0 | 1.0 | 0.00 | 0.00 | 0.00 | 77 | 1008.8 |
| 20260510002813 | 61 | 326 | 1.0 | 2.0 | 0.00 | 0.00 | 0.00 | 74 | 1008.4 |
| 20260510002310 | 61 | 166 | 0.0 | 0.0 | 0.00 | 0.00 | 0.00 | 71 | 1008.1 |
| 20260510001806 | 62 | 166 | 0.0 | 0.0 | 0.00 | 0.00 | 0.00 | 70 | 1008.3 |
| 20260510001305 | 63 | 166 | 0.0 | 0.0 | 0.00 | 0.00 | 0.00 | 69 | 1008.1 |
| 20260510000800 | 64 | 166 | 0.0 | 0.0 | 0.00 | 0.00 | 0.00 | 68 | 1008.1 |
| 20260510000258 | 64 | 167 | 0.0 | 0.0 | 0.00 | 0.00 | 0.00 | 67 | 1008.0 |
| 20260509235755 | 65 | 129 | 0.0 | 1.0 | 0.00 | 0.00 | 0.00 | 66 | 1007.7 |
| 20260509235251 | 65 | 222 | 2.0 | 2.0 | 0.00 | 0.00 | 0.00 | 64 | 1008.0 |
| 20260509234747 | 66 | 4 | 0.0 | 1.0 | 0.00 | 0.00 | 0.00 | 63 | 1008.0 |
| 20260509234244 | 66 | 310 | 0.0 | 1.0 | 0.00 | 0.00 | 0.00 | 63 | 1007.9 |
| 20260509233743 | 66 | 261 | 2.0 | 2.0 | 0.00 | 0.00 | 0.00 | 63 | 1007.9 |
| 20260509233240 | 66 | 157 | 2.0 | 2.0 | 0.00 | 0.00 | 0.00 | 62 | 1007.9 |
| 20260509232736 | 66 | 148 | 0.0 | 2.0 | 0.00 | 0.00 | 0.00 | 63 | 1008.1 |
| 20260509232233 | 67 | 268 | 0.0 | 2.0 | 0.00 | 0.00 | 0.00 | 63 | 1008.1 |
| 20260509231729 | 67 | 146 | 1.0 | 2.0 | 0.00 | 0.00 | 0.00 | 62 | 1008.0 |
| 20260509231227 | 67 | 31 | 2.0 | 3.0 | 0.00 | 0.00 | 0.00 | 62 | 1008.2 |
| 20260509230724 | 67 | 312 | 0.0 | 3.0 | 0.00 | 0.00 | 0.00 | 59 | 1008.0 |
| 20260509230221 | 67 | 263 | 0.0 | 1.0 | 0.00 | 0.00 | 0.00 | 61 | 1007.9 |
| 20260509225716 | 67 | 353 | 2.0 | 3.0 | 0.00 | 0.00 | 0.00 | 58 | 1008.0 |
| 20260509225212 | 68 | 87 | 3.0 | 6.0 | 0.00 | 0.00 | 0.00 | 58 | 1008.1 |
| 20260509224708 | 68 | 216 | 0.0 | 4.0 | 0.00 | 0.00 | 0.00 | 58 | 1008.3 |
| 20260509224205 | 69 | 166 | 0.0 | 4.0 | 0.00 | 0.00 | 0.00 | 57 | 1008.1 |
| 20260509223702 | 69 | 134 | 1.0 | 4.0 | 0.00 | 0.00 | 0.00 | 57 | 1008.2 |
| 20260509223159 | 69 | 96 | 1.0 | 4.0 | 0.00 | 0.00 | 0.00 | 56 | 1008.1 |
| 20260509222656 | 70 | 253 | 1.0 | 6.0 | 0.00 | 0.00 | 0.00 | 55 | 1008.5 |
| 20260509222152 | 69 | 246 | 0.0 | 7.0 | 0.00 | 0.00 | 0.00 | 56 | 1008.4 |
| 20260509221647 | 70 | 149 | 2.0 | 4.0 | 0.00 | 0.00 | 0.00 | 58 | 1008.4 |
| 20260509221143 | 70 | 167 | 3.0 | 4.0 | 0.00 | 0.00 | 0.00 | 55 | 1008.8 |
| 20260509220639 | 70 | 262 | 1.0 | 8.0 | 0.00 | 0.00 | 0.00 | 55 | 1008.7 |
| 20260509220135 | 70 | 269 | 1.0 | 2.0 | 0.00 | 0.00 | 0.00 | 55 | 1008.5 |
| 20260509215632 | 70 | 340 | 2.0 | 6.0 | 0.00 | 0.00 | 0.00 | 55 | 1008.4 |
| 20260509215128 | 70 | 169 | 3.0 | 6.0 | 0.00 | 0.00 | 0.00 | 55 | 1008.7 |
| 20260509214626 | 69 | 322 | 0.0 | 2.0 | 0.00 | 0.00 | 0.00 | 58 | 1008.7 |
| 20260509214122 | 69 | 218 | 3.0 | 6.0 | 0.00 | 0.00 | 0.00 | 58 | 1008.8 |
| 20260509213619 | 70 | 166 | 4.0 | 6.0 | 0.00 | 0.00 | 0.00 | 56 | 1008.5 |
| 20260509213115 | 70 | 151 | 2.0 | 6.0 | 0.00 | 0.00 | 0.00 | 56 | 1008.5 |
| 20260509212613 | 70 | 127 | 0.0 | 4.0 | 0.00 | 0.00 | 0.00 | 56 | 1008.8 |
| 20260509212110 | 70 | 186 | 2.0 | 4.0 | 0.00 | 0.00 | 0.00 | 55 | 1008.7 |
| 20260509211605 | 70 | 209 | 4.0 | 6.0 | 0.00 | 0.00 | 0.00 | 56 | 1008.5 |
| 20260509211102 | 70 | 304 | 2.0 | 4.0 | 0.00 | 0.00 | 0.00 | 53 | 1008.7 |
| 20260509210559 | 71 | 151 | 2.0 | 4.0 | 0.00 | 0.00 | 0.00 | 52 | 1008.7 |
| 20260509210056 | 70 | 147 | 2.0 | 4.0 | 0.00 | 0.00 | 0.00 | 56 | 1008.5 |
| 20260509205550 | 69 | 181 | 3.0 | 7.0 | 0.00 | 0.00 | 0.00 | 55 | 1008.5 |
| 20260509205045 | 69 | 195 | 1.0 | 4.0 | 0.00 | 0.00 | 0.00 | 55 | 1008.5 |
| 20260509204542 | 69 | 327 | 2.0 | 9.0 | 0.00 | 0.00 | 0.00 | 54 | 1008.5 |
| 20260509204038 | 69 | 201 | 2.0 | 6.0 | 0.00 | 0.00 | 0.00 | 55 | 1008.8 |
| 20260509203534 | 68 | 252 | 1.0 | 6.0 | 0.00 | 0.00 | 0.00 | 55 | 1008.7 |
| 20260509203033 | 69 | 353 | 1.0 | 6.0 | 0.00 | 0.00 | 0.00 | 55 | 1008.9 |
| 20260509202532 | 71 | 209 | 3.0 | 4.0 | 0.00 | 0.00 | 0.00 | 54 | 1008.7 |
| 20260509202028 | 69 | 72 | 0.0 | 4.0 | 0.00 | 0.00 | 0.00 | 55 | 1008.8 |
| 20260509201523 | 69 | 262 | 1.0 | 4.0 | 0.00 | 0.00 | 0.00 | 51 | 1008.9 |
| 20260509201021 | 69 | 246 | 2.0 | 4.0 | 0.00 | 0.00 | 0.00 | 49 | 1009.0 |
| 20260509200516 | 70 | 210 | 2.0 | 4.0 | 0.00 | 0.00 | 0.00 | 53 | 1008.9 |
| 20260509200013 | 69 | 140 | 1.0 | 4.0 | 0.00 | 0.00 | 0.00 | 52 | 1009.1 |
| 20260509195508 | 69 | 238 | 3.0 | 6.0 | 0.00 | 0.00 | 0.00 | 52 | 1009.1 |
| 20260509195007 | 69 | 55 | 2.0 | 6.0 | 0.00 | 0.00 | 0.00 | 52 | 1009.1 |
| 20260509194503 | 69 | 132 | 2.0 | 6.0 | 0.00 | 0.00 | 0.00 | 52 | 1009.1 |
| 20260509194000 | 68 | 237 | 4.0 | 7.0 | 0.00 | 0.00 | 0.00 | 53 | 1009.2 |
| 20260509193500 | 69 | 296 | 2.0 | 10.0 | 0.00 | 0.00 | 0.00 | 52 | 1009.5 |
| 20260509192956 | 68 | 163 | 3.0 | 4.0 | 0.00 | 0.00 | 0.00 | 56 | 1009.4 |
| 20260509192453 | 69 | 86 | 2.0 | 3.0 | 0.00 | 0.00 | 0.00 | 51 | 1009.3 |
| 20260509191948 | 69 | 168 | 4.0 | 8.0 | 0.00 | 0.00 | 0.00 | 54 | 1009.2 |
| 20260509191443 | 69 | 193 | 2.0 | 7.0 | 0.00 | 0.00 | 0.00 | 52 | 1009.4 |
| 20260509190940 | 68 | 233 | 2.0 | 6.0 | 0.00 | 0.00 | 0.00 | 53 | 1009.4 |
| 20260509190437 | 69 | 181 | 4.0 | 8.0 | 0.00 | 0.00 | 0.00 | 53 | 1009.4 |
| 20260509185935 | 68 | 180 | 2.0 | 4.0 | 0.00 | 0.00 | 0.00 | 54 | 1009.3 |
| 20260509185432 | 69 | 164 | 2.0 | 2.0 | 0.00 | 0.00 | 0.00 | 57 | 1009.4 |
| 20260509184928 | 69 | 355 | 1.0 | 2.0 | 0.00 | 0.00 | 0.00 | 55 | 1009.6 |
| 20260509184427 | 67 | 175 | 0.0 | 3.0 | 0.00 | 0.00 | 0.00 | 60 | 1009.4 |
| 20260509183923 | 66 | 146 | 4.0 | 7.0 | 0.00 | 0.00 | 0.00 | 58 | 1009.5 |
| 20260509183423 | 66 | 189 | 4.0 | 4.0 | 0.00 | 0.00 | 0.00 | 58 | 1009.6 |
| 20260509182920 | 66 | 181 | 4.0 | 6.0 | 0.00 | 0.00 | 0.00 | 56 | 1009.7 |
| 20260509182416 | 66 | 179 | 4.0 | 4.0 | 0.00 | 0.00 | 0.00 | 58 | 1009.8 |
| 20260509181914 | 66 | 160 | 5.0 | 8.0 | 0.00 | 0.00 | 0.00 | 57 | 1009.7 |
| 20260509181411 | 66 | 279 | 0.0 | 6.0 | 0.00 | 0.00 | 0.00 | 55 | 1009.6 |
| 20260509180908 | 65 | 277 | 1.0 | 2.0 | 0.00 | 0.00 | 0.00 | 59 | 1009.7 |
| 20260509180404 | 65 | 156 | 0.0 | 3.0 | 0.00 | 0.00 | 0.00 | 58 | 1009.5 |
| 20260509175901 | 64 | 215 | 1.0 | 2.0 | 0.00 | 0.00 | 0.00 | 63 | 1009.7 |
| 20260509175357 | 64 | 210 | 1.0 | 3.0 | 0.00 | 0.00 | 0.00 | 64 | 1009.8 |
| 20260509174853 | 64 | 90 | 1.0 | 2.0 | 0.00 | 0.00 | 0.00 | 64 | 1009.6 |
| 20260509174350 | 64 | 132 | 1.0 | 6.0 | 0.00 | 0.00 | 0.00 | 64 | 1009.7 |
| 20260509173845 | 64 | 249 | 2.0 | 4.0 | 0.00 | 0.00 | 0.00 | 66 | 1009.6 |
| 20260509173340 | 64 | 160 | 2.0 | 7.0 | 0.00 | 0.00 | 0.00 | 66 | 1009.4 |
| 20260509172837 | 63 | 175 | 2.0 | 4.0 | 0.00 | 0.00 | 0.00 | 69 | 1009.6 |
| 20260509172334 | 62 | 153 | 1.0 | 4.0 | 0.00 | 0.00 | 0.00 | 73 | 1009.5 |
| 20260509171830 | 62 | 79 | 2.0 | 4.0 | 0.00 | 0.00 | 0.00 | 71 | 1009.7 |
| 20260509171325 | 62 | 125 | 1.0 | 7.0 | 0.00 | 0.00 | 0.00 | 72 | 1009.5 |
| 20260509170822 | 62 | 167 | 4.0 | 6.0 | 0.00 | 0.00 | 0.00 | 72 | 1009.4 |
| 20260509170318 | 62 | 142 | 3.0 | 4.0 | 0.00 | 0.00 | 0.00 | 75 | 1009.3 |
| 20260509165818 | 62 | 289 | 1.0 | 4.0 | 0.00 | 0.00 | 0.00 | 75 | 1009.4 |
| 20260509165313 | 61 | 165 | 2.0 | 3.0 | 0.00 | 0.00 | 0.00 | 79 | 1009.5 |
| 20260509164809 | 61 | 207 | 4.0 | 7.0 | 0.00 | 0.00 | 0.00 | 77 | 1009.5 |
| 20260509164305 | 61 | 304 | 2.0 | 6.0 | 0.00 | 0.00 | 0.00 | 78 | 1009.7 |
| 20260509163802 | 60 | 65 | 1.0 | 3.0 | 0.00 | 0.00 | 0.00 | 80 | 1009.7 |
| 20260509163259 | 60 | 131 | 3.0 | 8.0 | 0.00 | 0.00 | 0.00 | 77 | 1009.6 |
| 20260509162758 | 59 | 155 | 0.0 | 2.0 | 0.00 | 0.00 | 0.00 | 80 | 1009.7 |
| 20260509162256 | 59 | 263 | 2.0 | 2.0 | 0.00 | 0.00 | 0.00 | 81 | 1009.7 |
| 20260509161753 | 58 | 314 | 0.0 | 1.0 | 0.00 | 0.00 | 0.00 | 83 | 1009.9 |
| 20260509161249 | 58 | 222 | 0.0 | 1.0 | 0.00 | 0.00 | 0.00 | 83 | 1009.8 |
| 20260509160744 | 57 | 148 | 0.0 | 1.0 | 0.00 | 0.00 | 0.00 | 84 | 1009.5 |
| 20260509160241 | 57 | 105 | 0.0 | 0.0 | 0.00 | 0.00 | 0.00 | 84 | 1009.6 |
| 20260509155736 | 57 | 151 | 1.0 | 1.0 | 0.00 | 0.00 | 0.00 | 84 | 1009.7 |
| 20260509155233 | 57 | 349 | 1.0 | 3.0 | 0.00 | 0.00 | 0.00 | 83 | 1009.7 |
| 20260509154729 | 58 | 318 | 2.0 | 3.0 | 0.00 | 0.00 | 0.00 | 83 | 1009.5 |
| 20260509154226 | 58 | 180 | 0.0 | 2.0 | 0.00 | 0.00 | 0.00 | 84 | 1009.5 |
| 20260509153724 | 58 | 0 | 0.0 | 2.0 | 0.00 | 0.00 | 0.00 | 85 | 1009.5 |
| 20260509153219 | 58 | 189 | 2.0 | 3.0 | 0.00 | 0.00 | 0.00 | 85 | 1009.4 |
| 20260509152715 | 57 | 158 | 0.0 | 2.0 | 0.00 | 0.00 | 0.00 | 84 | 1009.5 |
| 20260509152213 | 57 | 129 | 1.0 | 2.0 | 0.00 | 0.00 | 0.00 | 85 | 1009.6 |
| 20260509151709 | 57 | 217 | 1.0 | 1.0 | 0.00 | 0.00 | 0.00 | 86 | 1009.7 |
| 20260509151206 | 56 | 202 | 0.0 | 2.0 | 0.00 | 0.00 | 0.00 | 85 | 1009.4 |
| 20260509150704 | 56 | 170 | 3.0 | 4.0 | 0.00 | 0.00 | 0.00 | 86 | 1009.5 |
| 20260509150202 | 56 | 139 | 0.0 | 2.0 | 0.00 | 0.00 | 0.00 | 86 | 1009.5 |
| 20260509145658 | 56 | 133 | 2.0 | 3.0 | 0.00 | 0.00 | 0.00 | 86 | 1009.6 |
| 20260509145154 | 56 | 172 | 2.0 | 2.0 | 0.00 | 0.00 | 0.00 | 87 | 1009.7 |
| 20260509144650 | 56 | 136 | 3.0 | 3.0 | 0.00 | 0.00 | 0.00 | 88 | 1009.5 |
| 20260509144147 | 56 | 128 | 4.0 | 4.0 | 0.00 | 0.00 | 0.00 | 88 | 1009.6 |
| 20260509143644 | 56 | 156 | 3.0 | 3.0 | 0.00 | 0.00 | 0.00 | 90 | 1009.9 |
| 20260509143142 | 55 | 133 | 2.0 | 4.0 | 0.00 | 0.00 | 0.00 | 90 | 1009.7 |
| 20260509142637 | 55 | 132 | 2.0 | 3.0 | 0.00 | 0.00 | 0.00 | 91 | 1009.9 |
| 20260509142134 | 54 | 136 | 2.0 | 3.0 | 0.00 | 0.00 | 0.00 | 91 | 1009.9 |
| 20260509141630 | 54 | 156 | 1.0 | 2.0 | 0.00 | 0.00 | 0.00 | 92 | 1010.2 |
| 20260509141126 | 54 | 129 | 1.0 | 2.0 | 0.00 | 0.00 | 0.00 | 92 | 1009.9 |
| 20260509140623 | 55 | 155 | 1.0 | 1.0 | 0.00 | 0.00 | 0.00 | 93 | 1009.9 |
| 20260509140122 | 54 | 156 | 0.0 | 0.0 | 0.00 | 0.00 | 0.00 | 93 | 1009.8 |
| 20260509135618 | 54 | 150 | 0.0 | 1.0 | 0.00 | 0.00 | 0.00 | 93 | 1010.0 |
| 20260509135116 | 54 | 125 | 0.0 | 0.0 | 0.00 | 0.00 | 0.00 | 93 | 1010.0 |
| 20260509134612 | 54 | 158 | 0.0 | 0.0 | 0.00 | 0.00 | 0.00 | 93 | 1010.1 |
| 20260509134111 | 54 | 159 | 0.0 | 0.0 | 0.00 | 0.00 | 0.00 | 93 | 1010.1 |
| 20260509133608 | 53 | 159 | 0.0 | 0.0 | 0.00 | 0.00 | 0.00 | 93 | 1010.2 |
| 20260509133105 | 53 | 159 | 1.0 | 1.0 | 0.00 | 0.00 | 0.00 | 93 | 1010.2 |
| 20260509132603 | 53 | 158 | 0.0 | 0.0 | 0.00 | 0.00 | 0.00 | 93 | 1010.2 |
| 20260509132101 | 53 | 158 | 0.0 | 0.0 | 0.00 | 0.00 | 0.00 | 93 | 1010.1 |
| 20260509131556 | 53 | 158 | 0.0 | 0.0 | 0.00 | 0.00 | 0.00 | 93 | 1010.0 |
| 20260509131054 | 53 | 159 | 0.0 | 0.0 | 0.00 | 0.00 | 0.00 | 93 | 1010.2 |